Regional Weather Roundup
Issued by NWS Kansas City/Pleasant Hill, MO

Home | Current Version | Previous Version | Text Only | Print | Product List | Glossary On
Versions: 1 2 3 4 5 6 7 8 9 10 11 12 13 14 15 16 17 18 19 20 21 22 23 24 25 26 27 28 29 30 31 32 33 34 35 36 37 38 39 40 41 42 43 44 45 46 47 48 49 50
000
ASUS43 KEAX 041511
RWREAX

WEATHER ROUNDUP FOR EASTERN KANSAS AND NORTHWEST MISSOURI
NATIONAL WEATHER SERVICE KANSAS CITY/PLEASANT HILL MO
900 AM CST WED MAR 04 2015

KSZ040-057-103>105-MOZ028-029-037-043-041600-
...KANSAS CITY METROPOLITAN AREA...

CITY           SKY/WX    TMP DP  RH WIND       PRES   REMARKS
K.C. INTL      PTSUNNY   21   8  57 N14G21    30.29R WCI   8
K.C. DOWNTOWN  CLOUDY    23   8  52 N13       30.31R WCI  11
LEES SUMMIT    LGT SNOW  19  12  74 N12       30.29R WCI   7
OLATHE - IXD   LGT SNOW  19  14  81 N16       30.29R WCI   4
OLATHE - OJC   LGT SNOW  19  15  84 N15       30.27R FOG     WCI   5
LAWRENCE       CLOUDY    22  10  60 N10G21    30.32R WCI  11

$$

MOZ001>008-011>017-020>025-030>033-038>040-044>046-053-054-041600-
...NORTHERN AND CENTRAL MISSOURI...

CITY           SKY/WX    TMP DP  RH WIND       PRES   REMARKS
ST. JOSEPH     MOSUNNY   20   9  62 N13       30.33R WCI   7
MOSBY          PTSUNNY   23   9  54 N12       30.31R WCI  12
WARRENSBURG    CLOUDY    21  10  63 N14G20    30.28R WCI   8
WHITEMAN AFB   CLOUDY    20  10  63 N17       30.25R WCI   6
CLINTON        CLOUDY    23  12  63 N14G21    30.27R WCI  11
SEDALIA        CLOUDY    21  10  62 N18       30.26R WCI   6
WARSAW         NOT AVBL
MARSHALL       CLOUDY    23  12  63 N12G20    30.24  WCI  12
CHILLICOTHE      N/A     21   3  45 N7G22     30.31R WCI  12
KIRKSVILLE     NOT AVBL

$$

MOZ041-047>049-056>058-063>065-088>090-097-041600-
...EASTERN AND SOUTHERN MISSOURI...

CITY           SKY/WX    TMP DP  RH WIND       PRES   REMARKS
ST. LOUIS INTL CLOUDY    22   9  57 N15       30.21R WCI   9
SPIRIT OF STL  CLOUDY    22   9  57 N16       30.21R WCI   8
COLUMBIA       CLOUDY    20   8  60 N17       30.23R WCI   5
JEFFERSON CITY LGT SNOW  20  16  84 N7        30.25R FOG     WCI  11
MEXICO         CLOUDY    21  10  63 N13       30.22  WCI   9
HANNIBAL       PTSUNNY   19   1  45 N13G21    30.24R WCI   7
ROLLA          LGT SNOW  21  11  65 N14       30.16R WCI   8
OSAGE BEACH    CLOUDY    21  18  86 NE12      30.23R VSB 1/4 WCI   9
SPRINGFIELD    LGT SNOW  25  22  88 N15       30.15R VSB 3/4 WCI  13
BRANSON        RAIN      32  32 100 N12G17    30.08R WCI  23
NEVADA         CLOUDY    19  16  86 N17G23    30.26R WCI   4
JOPLIN         LGT SNOW  22  18  85 N16G25    30.19R FOG     WCI   8
WEST PLAINS    FRZ RAIN  32  28  85 N15G23    30.08R FOG     WCI  22

$$

IAZ060-094-KSZ022-034>040-054-083-096-NEZ052-066-093-041600-
...KANSAS...SOUTHEAST NEBRASKA AND IOWA...

CITY           SKY/WX    TMP DP  RH WIND       PRES   REMARKS
TOPEKA         CLOUDY    22  12  65 N12       30.32R WCI  10
MANHATTAN      PTSUNNY   23  13  65 N7        30.33R WCI  15
EMPORIA        LGT SNOW  19  15  84 N13       30.29R VSB 3/4 WCI   6
CHANUTE        CLOUDY    21  13  71 N17       30.26R WCI   7
WICHITA        LGT SNOW  20  15  81 N16       30.27R VSB 1   WCI   6
OMAHA          MOSUNNY   21   7  54 NW5       30.31R WCI  15
LINCOLN        SUNNY     21  10  62 N3        30.32R
FALLS CITY     SUNNY     20  13  74 N7        30.31R WCI  11
LAMONI         SUNNY     16   2  54 N9        30.27R WCI   4
DES MOINES     PTSUNNY   15  -2  46 NW12      30.29R WCI   2

$$



USA.gov is the U.S. government's official web portal to all federal, state and local government web resources and services.